Content
SEND FEEDBACK

Daily
Averages
Monthly
Summary
United States of America

UPI, GUAM


Home > North America > United States > Guam
Elevation: 16 meters     Latitude: 13 34N     Longitude: 144 55E

WEATHER
 
SELECT A DAY
Number of Records: 209,379;   Date Range: 1/1/95 - 9/21/14
 
SHARE

PRINT THIS DATA

[ ← Previous Day ]
WEATHER ALMANAC - 7 APRIL, 2013
[ Next Day → ]
[ °F ]   °C
Weather ElementAverageHighLow
Temperature28.1 °C31.1 °C (1:54 pm)25 °C (4:54 am)
Dewpoint21.8 °C22.8 °C (8:54 pm)20 °C (2:54 pm)
Humidity69 %82 % (4:54 am)53 % (1:54 pm)
Barometer1009.8 hPa1011.5 hPa (10:54 pm)1008.1 hPa (3:54 pm)
Wind Speed11.7 km/h18.5 km/h (11:54 am)
Wind Gust31.5 km/h (11:54 am)
Weather ElementAverage
Visibility16.1 km
Wind DirectionESE (100.9 °)

Weather ElementTotal
Precipitation---
Cooling Degree Days9.7 (Base 18.3)
Growing Degree Days18.1 (Base 10)
Averaged from 23 records on 7 April, 2013
WEATHER CONDITIONS BREAKOUT
WIND DIRECTION BREAKOUT
WEATHER BY HOUR - 7 APRIL, 2013
[ °F ]   °C
Local TimeTemperatureDewpointHumidityBarometerVisibilityWind DirectionWind SpeedGust SpeedPrecipitationEventsConditions
1:54 AM26.1 °C21.7 °C77 %1009.5 hPa16.1 kmEast (100°)5.6 km/hClear
2:54 AM25.6 °C21.7 °C79 %1009.1 hPa16.1 kmEast (90°)9.3 km/hClear
3:54 AM26.1 °C21.7 °C77 %1008.8 hPa16.1 kmEast (100°)9.3 km/hClear
4:54 AM25 °C21.7 °C82 %1008.8 hPa16.1 kmESE (120°)5.6 km/hClear
5:54 AM25 °C21.7 °C82 %1009.1 hPa16.1 kmEast (100°)5.6 km/hClear
6:54 AM26.1 °C21.7 °C77 %1009.5 hPa16.1 kmESE (120°)9.3 km/hPartly Cloudy
7:54 AM27.8 °C22.2 °C71 %1010.5 hPa16.1 kmESE (110°)11.1 km/hPartly Cloudy
8:54 AM29.4 °C22.2 °C65 %1011.2 hPa16.1 kmEast (100°)14.8 km/hScattered Clouds
9:54 AM30 °C21.7 °C61 %1011.2 hPa16.1 kmESE (120°)16.7 km/hScattered Clouds
10:54 AM30 °C21.1 °C59 %1010.5 hPa16.1 kmESE (110°)16.7 km/hPartly Cloudy
11:54 AM30.6 °C21.7 °C59 %1009.8 hPa16.1 kmEast (90°)18.5 km/h31.5 km/hPartly Cloudy
12:54 PM30.6 °C21.1 °C57 %1009.5 hPa16.1 kmEast (90°)18.5 km/hPartly Cloudy
1:54 PM31.1 °C20.6 °C53 %1008.8 hPa16.1 kmEast (100°)16.7 km/hPartly Cloudy
2:54 PM30.6 °C20 °C53 %1008.5 hPa16.1 kmEast (100°)14.8 km/hPartly Cloudy
3:54 PM30 °C21.1 °C59 %1008.1 hPa16.1 kmEast (100°)16.7 km/hPartly Cloudy
4:54 PM30 °C22.2 °C63 %1008.5 hPa16.1 kmESE (110°)14.8 km/hPartly Cloudy
5:54 PM28.9 °C22.2 °C67 %1008.8 hPa16.1 kmESE (110°)11.1 km/hPartly Cloudy
6:54 PM27.8 °C22.2 °C71 %1009.5 hPa16.1 kmESE (110°)7.4 km/hClear
7:54 PM27.8 °C22.2 °C71 %1010.2 hPa16.1 kmEast (90°)7.4 km/hPartly Cloudy
8:54 PM27.2 °C22.8 °C77 %1010.8 hPa16.1 kmEast (90°)7.4 km/hPartly Cloudy
9:54 PM27.2 °C22.8 °C77 %1011.2 hPa16.1 kmEast (90°)11.1 km/hPartly Cloudy
10:54 PM27.2 °C22.2 °C74 %1011.5 hPa16.1 kmEast (90°)9.3 km/hPartly Cloudy
11:54 PM26.7 °C22.2 °C76 %1011.2 hPa16.1 kmEast (80°)11.1 km/hPartly Cloudy
Hourly data recorded from PGUM, located 0 kilometers away from Upi, Guam







STORIES FROM OUR PARTNERS